When you browse on this site, cookies collect data to enhance your experience and personalize the content and advertising you see.
Visit our Privacy Policy to learn more. By continuing to use the site, you agree to this use of cookies and data.
  • In United Kingdom
  • List of Countries
  • For 7 days
  • Water Temperature
  • Weather Map
  • Weather Widgets
  • user-avatar
    Login

    Hourly Weather Gloucester

    Today, 22 August, Thursday

    Time Temperature Precipitation Wind Pressure Humidity
    00:00 +13°C° 0 mm 3 mps 762 mmHg 92%
    01:00 +12°C° 0 mm 3 mps 761 mmHg 92%
    02:00 +12°C° 0 mm 4 mps 761 mmHg 92%
    03:00 +12°C° 0 mm 4 mps 761 mmHg 92%
    04:00 +12°C° 0 mm 4 mps 761 mmHg 91%
    05:00 +12°C° 0 mm 4 mps 761 mmHg 91%
    06:00 +13°C° 0 mm 5 mps 761 mmHg 89%
    07:00 +15°C° 0 mm 5 mps 761 mmHg 86%
    08:00 +16°C° 0 mm 6 mps 761 mmHg 83%
    09:00 +17°C° 0 mm 6 mps 761 mmHg 81%
    10:00 +19°C° 0 mm 6 mps 761 mmHg 78%
    11:00 +20°C° 0 mm 6 mps 761 mmHg 76%
    12:00 +21°C° 0 mm 6 mps 762 mmHg 74%
    13:00 +21°C° 0 mm 6 mps 762 mmHg 73%
    14:00 +21°C° 0 mm 6 mps 762 mmHg 72%
    15:00 +22°C° 0 mm 6 mps 762 mmHg 71%
    16:00 +21°C° 0 mm 6 mps 761 mmHg 74%
    17:00 +20°C° 0 mm 5 mps 761 mmHg 77%
    18:00 +19°C° 0 mm 5 mps 761 mmHg 80%
    19:00 +18°C° 0 mm 4 mps 762 mmHg 85%
    20:00 +17°C° 0 mm 3 mps 762 mmHg 89%
    21:00 +16°C° 0 mm 3 mps 762 mmHg 94%
    22:00 +16°C° 0 mm 3 mps 762 mmHg 95%
    23:00 +16°C° 0 mm 2 mps 762 mmHg 96%

    Tomorrow, 23 August, Friday

    Time Temperature Precipitation Wind Pressure Humidity
    00:00 +15°C° 0 mm 2 mps 762 mmHg 96%
    01:00 +15°C° 0 mm 2 mps 762 mmHg 97%
    02:00 +15°C° 0 mm 2 mps 762 mmHg 97%
    03:00 +15°C° 0 mm 2 mps 762 mmHg 97%
    04:00 +15°C° 0 mm 2 mps 762 mmHg 97%
    05:00 +15°C° 0 mm 2 mps 762 mmHg 97%
    06:00 +15°C° 0 mm 1 mps 762 mmHg 97%
    07:00 +16°C° 0 mm 2 mps 762 mmHg 91%
    08:00 +18°C° 0 mm 2 mps 762 mmHg 86%
    09:00 +19°C° 0 mm 2 mps 762 mmHg 80%
    10:00 +20°C° 0 mm 2 mps 762 mmHg 76%
    11:00 +21°C° 0 mm 2 mps 762 mmHg 71%
    12:00 +23°C° 0 mm 2 mps 761 mmHg 67%
    13:00 +24°C° 0 mm 2 mps 761 mmHg 65%
    14:00 +24°C° 0 mm 2 mps 761 mmHg 62%
    15:00 +25°C° 0 mm 2 mps 761 mmHg 60%
    16:00 +24°C° 0 mm 2 mps 761 mmHg 63%
    17:00 +24°C° 0 mm 2 mps 760 mmHg 65%
    18:00 +23°C° 0 mm 2 mps 760 mmHg 68%
    19:00 +20°C° 0 mm 2 mps 760 mmHg 70%
    20:00 +18°C° 0 mm 2 mps 760 mmHg 72%
    21:00 +16°C° 0 mm 1 mps 760 mmHg 74%
    22:00 +15°C° 0 mm 1 mps 760 mmHg 74%
    23:00 +15°C° 0 mm 1 mps 759 mmHg 74%

    Day after tomorrow, 24 August, Saturday

    Time Temperature Precipitation Wind Pressure Humidity
    00:00 +14°C° 0 mm 1 mps 759 mmHg 74%
    01:00 +14°C° 0 mm 1 mps 759 mmHg 73%
    02:00 +13°C° 0 mm 1 mps 759 mmHg 72%
    03:00 +13°C° 0 mm 1 mps 759 mmHg 72%
    04:00 +13°C° 0 mm 1 mps 758 mmHg 71%
    05:00 +13°C° 0 mm 1 mps 758 mmHg 70%
    06:00 +13°C° 0 mm 1 mps 758 mmHg 70%
    07:00 +16°C° 0 mm 1 mps 758 mmHg 67%
    08:00 +18°C° 0 mm 2 mps 758 mmHg 64%
    09:00 +20°C° 0 mm 2 mps 758 mmHg 61%
    10:00 +22°C° 0 mm 3 mps 758 mmHg 59%
    11:00 +24°C° 0 mm 3 mps 757 mmHg 57%
    12:00 +26°C° 0 mm 4 mps 757 mmHg 55%
    13:00 +26°C° 0 mm 4 mps 757 mmHg 54%
    14:00 +27°C° 0 mm 4 mps 757 mmHg 53%
    15:00 +27°C° 0 mm 4 mps 756 mmHg 53%
    16:00 +26°C° 0 mm 3 mps 756 mmHg 57%
    17:00 +25°C° 0 mm 3 mps 756 mmHg 62%
    18:00 +24°C° 0 mm 2 mps 755 mmHg 66%
    19:00 +23°C° 0 mm 2 mps 755 mmHg 68%
    20:00 +20°C° 0 mm 2 mps 756 mmHg 71%
    21:00 +19°C° 0 mm 2 mps 756 mmHg 73%
    22:00 +18°C° 0 mm 2 mps 755 mmHg 74%
    23:00 +18°C° 0 mm 2 mps 755 mmHg 75%

    25 August, Sunday

    Time Temperature Precipitation Wind Pressure Humidity
    00:00 +17°C° 0 mm 2 mps 755 mmHg 76%
    01:00 +18°C° 0 mm 1 mps 755 mmHg 76%
    02:00 +18°C° 0 mm 1 mps 755 mmHg 75%
    03:00 +18°C° 0 mm 1 mps 755 mmHg 75%
    04:00 +18°C° 0 mm 1 mps 755 mmHg 76%
    05:00 +18°C° 0 mm 1 mps 754 mmHg 77%
    06:00 +18°C° 0 mm 1 mps 754 mmHg 78%
    07:00 +19°C° 0 mm 2 mps 755 mmHg 73%
    08:00 +21°C° 0 mm 2 mps 755 mmHg 69%
    09:00 +23°C° 0 mm 2 mps 755 mmHg 64%
    10:00 +25°C° 0 mm 3 mps 755 mmHg 61%
    11:00 +26°C° 0 mm 3 mps 755 mmHg 57%
    12:00 +28°C° 0 mm 3 mps 755 mmHg 53%
    13:00 +28°C° 0 mm 3 mps 755 mmHg 52%
    14:00 +29°C° 0 mm 3 mps 755 mmHg 52%
    15:00 +29°C° 0 mm 3 mps 755 mmHg 51%
    16:00 +27°C° 0 mm 3 mps 755 mmHg 58%
    17:00 +26°C° 0 mm 3 mps 755 mmHg 66%
    18:00 +25°C° 0 mm 3 mps 756 mmHg 73%
    19:00 +23°C° 0 mm 2 mps 756 mmHg 78%
    20:00 +21°C° 0 mm 1 mps 756 mmHg 82%
    21:00 +20°C° 0 mm 1 mps 756 mmHg 87%
    22:00 +19°C° 0 mm 1 mps 756 mmHg 88%
    23:00 +19°C° 0 mm 1 mps 757 mmHg 90%

    26 August, Monday

    Time Temperature Precipitation Wind Pressure Humidity
    00:00 +18°C° 0 mm 1 mps 757 mmHg 91%
    01:00 +18°C° 0 mm 1 mps 756 mmHg 91%
    02:00 +16°C° 0 mm 1 mps 756 mmHg 92%
    03:00 +16°C° 0 mm 1 mps 756 mmHg 93%
    04:00 +16°C° 0 mm 1 mps 756 mmHg 92%
    05:00 +15°C° 0 mm 0 mps 756 mmHg 92%
    06:00 +15°C° 0 mm 0 mps 756 mmHg 92%
    07:00 +17°C° 0 mm 0 mps 756 mmHg 84%
    08:00 +19°C° 0 mm 0 mps 756 mmHg 77%
    09:00 +21°C° 0 mm 0 mps 756 mmHg 69%
    10:00 +23°C° 0 mm 0 mps 756 mmHg 64%
    11:00 +24°C° 0 mm 0 mps 756 mmHg 58%
    12:00 +28°C° 0 mm 1 mps 756 mmHg 52%
    13:00 +28°C° 0 mm 1 mps 756 mmHg 51%
    14:00 +29°C° 0 mm 1 mps 755 mmHg 50%
    15:00 +29°C° 0 mm 1 mps 755 mmHg 49%
    16:00 +28°C° 0 mm 1 mps 755 mmHg 54%
    17:00 +27°C° 0 mm 1 mps 755 mmHg 60%
    18:00 +27°C° 0 mm 2 mps 754 mmHg 65%
    19:00 +25°C° 0 mm 2 mps 754 mmHg 69%
    20:00 +23°C° 0 mm 2 mps 754 mmHg 72%
    21:00 +21°C° 0 mm 2 mps 754 mmHg 76%
    22:00 +20°C° 0 mm 2 mps 754 mmHg 78%
    23:00 +19°C° 0 mm 2 mps 754 mmHg 80%

    27 August, Tuesday

    Time Temperature Precipitation Wind Pressure Humidity
    00:00 +19°C° 0 mm 2 mps 754 mmHg 82%
    01:00 +19°C° 0 mm 1 mps 754 mmHg 82%
    02:00 +19°C° 0 mm 1 mps 753 mmHg 82%
    03:00 +18°C° 0 mm 1 mps 753 mmHg 81%
    04:00 +18°C° 0 mm 1 mps 753 mmHg 82%
    05:00 +17°C° 0 mm 2 mps 753 mmHg 82%
    06:00 +17°C° 0 mm 2 mps 753 mmHg 83%
    07:00 +18°C° 0 mm 2 mps 753 mmHg 79%
    08:00 +20°C° 0 mm 2 mps 753 mmHg 75%
    09:00 +23°C° 0 mm 2 mps 753 mmHg 70%
    10:00 +24°C° 0.1 mm 1 mps 752 mmHg 68%
    11:00 +25°C° 0.1 mm 1 mps 752 mmHg 66%
    12:00 +26°C° 0.1 mm 1 mps 752 mmHg 64%
    13:00 +27°C° 0.9 mm 1 mps 752 mmHg 64%
    14:00 +27°C° 0.9 mm 1 mps 752 mmHg 65%
    15:00 +27°C° 0.9 mm 1 mps 751 mmHg 65%
    16:00 +25°C° 1.4 mm 1 mps 751 mmHg 72%
    17:00 +24°C° 1.4 mm 2 mps 751 mmHg 79%
    18:00 +21°C° 1.4 mm 3 mps 751 mmHg 86%
    19:00 +20°C° 0.7 mm 3 mps 752 mmHg 88%
    20:00 +19°C° 0.7 mm 3 mps 752 mmHg 90%
    21:00 +18°C° 0.7 mm 3 mps 752 mmHg 91%
    22:00 +17°C° 0.1 mm 3 mps 752 mmHg 90%
    23:00 +17°C° 0.1 mm 3 mps 752 mmHg 89%
    Show more